QPF
0.00 0.00 0.00 0.01 0.01 0.02 0.02 0.02 0.01 0.01 0.01 0.01 0.01 0.01 0.01 0.01 0.00 0.01 0.02 0.02 0.05 0.08 0.08 0.07 0.07 0.09 0.08 0.07 0.09 0.10 0.09 0.06 0.06 0.04 0.04 0.05 0.07 0.07 0.04 0.03 0.03 0.03 0.03
0.00 0.00 0.01 0.01 0.01 0.01 0.01 0.01 0.01 0.01 0.01 0.02 0.02 0.02 0.01 0.01 0.01 0.01 0.01 0.01 0.02 0.06 0.11 0.08 0.09 0.11 0.12 0.09 0.09 0.10 0.10 0.06 0.05 0.04 0.03 0.04 0.05 0.06 0.04 0.03 0.04 0.05 0.05
0.00 0.00 0.00 0.01 0.01 0.01 0.00 0.00 0.01 0.01 0.01 0.02 0.02 0.02 0.02 0.02 0.01 0.01 0.01 0.02 0.02 0.09 0.13 0.11 0.08 0.08 0.12 0.10 0.08 0.08 0.09 0.10 0.05 0.05 0.04 0.03 0.04 0.04 0.04 0.05 0.04 0.03 0.03
0.00 0.00 0.00 0.00 0.00 0.00 0.00 0.01 0.01 0.01 0.02 0.02 0.02 0.02 0.01 0.02 0.02 0.01 0.01 0.01 0.02 0.07 0.11 0.10 0.09 0.08 0.09 0.09 0.09 0.08 0.10 0.11 0.07 0.05 0.04 0.03 0.03 0.04 0.03 0.05 0.05 0.04 0.02
0.00 0.00 0.00 0.00 0.00 0.00 0.01 0.01 0.01 0.02 0.02 0.03 0.02 0.01 0.01 0.02 0.02 0.02 0.02 0.01 0.01 0.02 0.06 0.12 0.12 0.10 0.09 0.10 0.09 0.08 0.07 0.06 0.05 0.04 0.04 0.03 0.02 0.03 0.03 0.03 0.05 0.06 0.04
0.00 0.00 0.00 0.00 0.00 0.00 0.01 0.02 0.02 0.02 0.02 0.02 0.02 0.01 0.01 0.02 0.02 0.01 0.02 0.01 0.01 0.01 0.04 0.12 0.11 0.08 0.07 0.07 0.08 0.08 0.07 0.06 0.06 0.06 0.06 0.05 0.04 0.03 0.02 0.03 0.04 0.04 0.04
0.00 0.00 0.00 0.00 0.00 0.01 0.01 0.01 0.02 0.02 0.02 0.02 0.02 0.03 0.03 0.03 0.02 0.01 0.01 0.01 0.01 0.01 0.05 0.13 0.12 0.10 0.09 0.06 0.05 0.07 0.07 0.07 0.08 0.06 0.06 0.05 0.04 0.03 0.02 0.02 0.03 0.03 0.03
0.00 0.00 0.00 0.00 0.00 0.01 0.01 0.01 0.01 0.01 0.01 0.02 0.03 0.04 0.03 0.03 0.02 0.01 0.01 0.01 0.01 0.02 0.03 0.09 0.11 0.11 0.11 0.11 0.07 0.06 0.05 0.07 0.07 0.06 0.06 0.04 0.03 0.03 0.03 0.03 0.04 0.04 0.03
0.00 0.00 0.00 0.00 0.00 0.01 0.01 0.01 0.01 0.01 0.01 0.01 0.02 0.03 0.03 0.03 0.03 0.02 0.01 0.02 0.02 0.03 0.02 0.02 0.03 0.05 0.07 0.06 0.05 0.05 0.05 0.07 0.06 0.07 0.07 0.05 0.04 0.04 0.03 0.03 0.04 0.04 0.03
0.00 0.00 0.00 0.00 0.00 0.00 0.01 0.01 0.02 0.02 0.02 0.01 0.01 0.01 0.01 0.02 0.02 0.02 0.02 0.02 0.03 0.03 0.03 0.03 0.03 0.04 0.04 0.03 0.03 0.03 0.03 0.04 0.05 0.06 0.05 0.06 0.06 0.04 0.03 0.03 0.03 0.04 0.04
0.00 0.00 0.00 0.00 0.00 0.00 0.00 0.01 0.01 0.01 0.01 0.01 0.02 0.01 0.01 0.02 0.01 0.01 0.01 0.02 0.05 0.05 0.04 0.04 0.04 0.04 0.03 0.03 0.04 0.03 0.02 0.03 0.05 0.04 0.04 0.07 0.09 0.04 0.04 0.04 0.04 0.04 0.04
0.00 0.00 0.00 0.00 0.00 0.00 0.00 0.00 0.00 0.01 0.00 0.00 0.01 0.01 0.01 0.02 0.01 0.01 0.01 0.02 0.04 0.04 0.04 0.04 0.04 0.03 0.03 0.04 0.03 0.03 0.02 0.03 0.05 0.03 0.04 0.10 0.22 0.12 0.08 0.08 0.06 0.05 0.05
0.00 0.00 0.00 0.00 0.00 0.00 0.00 0.00 0.00 0.00 0.00 0.00 0.00 0.01 0.01 0.01 0.01 0.01 0.01 0.02 0.02 0.03 0.03 0.03 0.02 0.02 0.03 0.04 0.03 0.02 0.01 0.03 0.06 0.04 0.05 0.16 0.33 0.33 0.23 0.12 0.07 0.06 0.06
0.00 0.00 0.00 0.00 0.00 0.00 0.00 0.00 0.00 0.00 0.00 0.00 0.00 0.01 0.01 0.01 0.01 0.01 0.02 0.02 0.02 0.02 0.02 0.02 0.02 0.02 0.02 0.02 0.02 0.02 0.01 0.02 0.04 0.04 0.06 0.13 0.25 0.35 0.29 0.14 0.06 0.04 0.05
0.00 0.00 0.00 0.00 0.00 0.00 0.00 0.00 0.00 0.00 0.00 0.00 0.01 0.01 0.01 0.01 0.01 0.01 0.02 0.02 0.03 0.02 0.02 0.02 0.03 0.04 0.03 0.02 0.02 0.02 0.02 0.03 0.04 0.04 0.04 0.06 0.11 0.19 0.22 0.17 0.08 0.04 0.04
0.00 0.00 0.00 0.00 0.00 0.00 0.00 0.00 0.00 0.00 0.00 0.00 0.00 0.01 0.02 0.01 0.01 0.02 0.01 0.02 0.02 0.02 0.02 0.02 0.02 0.04 0.05 0.03 0.01 0.02 0.02 0.02 0.03 0.03 0.03 0.03 0.05 0.08 0.12 0.12 0.09 0.06 0.04
0.00 0.00 0.00 0.00 0.00 0.00 0.00 0.00 0.00 0.00 0.00 0.00 0.01 0.01 0.01 0.01 0.01 0.02 0.02 0.02 0.02 0.02 0.01 0.01 0.01 0.03 0.06 0.04 0.03 0.03 0.01 0.02 0.03 0.02 0.02 0.02 0.03 0.04 0.06 0.07 0.07 0.05 0.03
0.00 0.00 0.00 0.00 0.00 0.00 0.00 0.00 0.00 0.00 0.00 0.00 0.01 0.01 0.01 0.01 0.01 0.01 0.02 0.02 0.01 0.01 0.01 0.01 0.00 0.01 0.01 0.02 0.02 0.03 0.03 0.01 0.02 0.02 0.02 0.02 0.02 0.02 0.02 0.02 0.03 0.03 0.04
0.01 0.00 0.00 0.00 0.00 0.00 0.00 0.00 0.00 0.00 0.00 0.00 0.00 0.00 0.01 0.00 0.01 0.01 0.01 0.01 0.01 0.00 0.01 0.01 0.01 0.01 0.00 0.00 0.01 0.03 0.04 0.03 0.02 0.02 0.03 0.02 0.01 0.01 0.01 0.01 0.01 0.01 0.03
0.02 0.01 0.01 0.00 0.00 0.00 0.00 0.00 0.00 0.00 0.00 0.00 0.00 0.00 0.00 0.00 0.00 0.01 0.01 0.01 0.01 0.00 0.00 0.00 0.01 0.01 0.01 0.00 0.01 0.02 0.03 0.04 0.04 0.02 0.02 0.03 0.02 0.01 0.01 0.01 0.01 0.02 0.02
0.02 0.01 0.01 0.00 0.00 0.00 0.00 0.00 0.00 0.00 0.00 0.00 0.00 0.00 0.00 0.00 0.00 0.01 0.01 0.01 0.01 0.01 0.00 0.00 0.00 0.00 0.00 0.00 0.01 0.01 0.01 0.01 0.01 0.01 0.01 0.01 0.02 0.02 0.01 0.00 0.01 0.03 0.03
0.02 0.01 0.01 0.00 0.00 0.00 0.00 0.00 0.01 0.00 0.00 0.00 0.00 0.00 0.01 0.00 0.00 0.00 0.01 0.01 0.01 0.01 0.01 0.01 0.01 0.01 0.01 0.01 0.01 0.01 0.00 0.00 0.00 0.00 0.01 0.01 0.01 0.01 0.01 0.01 0.00 0.00 0.01
0.01 0.02 0.01 0.00 0.00 0.00 0.00 0.00 0.01 0.00 0.00 0.00 0.00 0.01 0.01 0.00 0.00 0.01 0.01 0.00 0.00 0.00 0.00 0.01 0.01 0.01 0.01 0.01 0.01 0.01 0.01 0.00 0.00 0.00 0.00 0.01 0.01 0.01 0.01 0.01 0.00 0.00 0.00
0.00 0.01 0.01 0.00 0.00 0.00 0.00 0.00 0.01 0.00 0.00 0.00 0.00 0.00 0.00 0.00 0.00 0.01 0.01 0.00 0.00 0.00 0.00 0.00 0.00 0.00 0.00 0.00 0.01 0.01 0.01 0.00 0.00 0.00 0.00 0.01 0.01 0.01 0.01 0.00 0.00 0.00 0.00
0.00 0.00 0.00 0.00 0.00 0.00 0.00 0.00 0.01 0.01 0.01 0.01 0.00 0.00 0.00 0.01 0.01 0.01 0.01 0.00 0.00 0.00 0.00 0.00 0.00 0.00 0.00 0.00 0.00 0.00 0.00 0.00 0.01 0.01 0.01 0.01 0.02 0.01 0.01 0.00 0.00 0.00 0.00
0.00 0.00 0.00 0.00 0.00 0.00 0.00 0.00 0.01 0.01 0.01 0.01 0.00 0.00 0.00 0.01 0.01 0.01 0.01 0.01 0.00 0.00 0.00 0.00 0.00 0.00 0.00 0.00 0.00 0.00 0.00 0.00 0.01 0.01 0.01 0.01 0.01 0.03 0.02 0.01 0.00 0.00 0.00
MSLP
1016.75 1016.65 1016.54 1016.43 1016.33 1016.25 1016.22 1016.23 1016.28 1016.33 1016.39 1016.42 1016.42 1016.40 1016.36 1016.34 1016.36 1016.46 1016.64 1016.91 1017.25 1017.62 1017.99 1018.31 1018.55 1018.69 1018.71 1018.63 1018.47 1018.25 1018.02 1017.80 1017.62 1017.50 1017.46 1017.48 1017.57 1017.72 1017.90 1018.11 1018.33 1018.55 1018.76
1016.83 1016.70 1016.56 1016.44 1016.33 1016.26 1016.23 1016.24 1016.29 1016.36 1016.43 1016.49 1016.51 1016.52 1016.50 1016.49 1016.51 1016.59 1016.73 1016.95 1017.23 1017.56 1017.89 1018.19 1018.42 1018.56 1018.59 1018.52 1018.35 1018.11 1017.84 1017.56 1017.31 1017.12 1017.01 1016.99 1017.06 1017.21 1017.43 1017.68 1017.95 1018.23 1018.50
1016.98 1016.83 1016.68 1016.55 1016.44 1016.38 1016.36 1016.38 1016.44 1016.53 1016.63 1016.72 1016.79 1016.83 1016.85 1016.86 1016.88 1016.93 1017.03 1017.18 1017.38 1017.62 1017.88 1018.12 1018.31 1018.43 1018.45 1018.37 1018.19 1017.93 1017.62 1017.28 1016.96 1016.70 1016.52 1016.45 1016.48 1016.62 1016.84 1017.14 1017.47 1017.82 1018.15
1017.18 1017.00 1016.84 1016.71 1016.61 1016.55 1016.54 1016.58 1016.66 1016.77 1016.90 1017.04 1017.16 1017.26 1017.33 1017.38 1017.42 1017.46 1017.51 1017.59 1017.71 1017.85 1018.00 1018.16 1018.28 1018.35 1018.34 1018.23 1018.03 1017.74 1017.39 1017.00 1016.62 1016.28 1016.03 1015.88 1015.87 1015.98 1016.21 1016.53 1016.91 1017.33 1017.74
1017.40 1017.20 1017.03 1016.89 1016.80 1016.74 1016.73 1016.77 1016.85 1016.98 1017.14 1017.33 1017.51 1017.68 1017.83 1017.94 1018.03 1018.08 1018.12 1018.16 1018.19 1018.24 1018.29 1018.34 1018.38 1018.37 1018.31 1018.16 1017.93 1017.61 1017.22 1016.78 1016.34 1015.93 1015.60 1015.38 1015.30 1015.37 1015.59 1015.92 1016.34 1016.81 1017.30
1017.61 1017.40 1017.22 1017.08 1016.97 1016.90 1016.88 1016.90 1016.98 1017.10 1017.29 1017.50 1017.75 1018.00 1018.23 1018.44 1018.60 1018.71 1018.77 1018.79 1018.78 1018.75 1018.72 1018.67 1018.62 1018.53 1018.41 1018.21 1017.95 1017.60 1017.17 1016.69 1016.19 1015.72 1015.31 1015.02 1014.88 1014.89 1015.06 1015.38 1015.82 1016.32 1016.87
1017.82 1017.60 1017.41 1017.26 1017.13 1017.04 1016.98 1016.97 1017.02 1017.12 1017.30 1017.54 1017.83 1018.15 1018.48 1018.79 1019.05 1019.25 1019.37 1019.41 1019.40 1019.34 1019.24 1019.13 1018.99 1018.84 1018.65 1018.42 1018.12 1017.74 1017.29 1016.78 1016.24 1015.72 1015.25 1014.89 1014.66 1014.61 1014.73 1015.01 1015.42 1015.94 1016.52
1018.05 1017.83 1017.63 1017.46 1017.31 1017.19 1017.09 1017.02 1017.01 1017.07 1017.22 1017.45 1017.77 1018.14 1018.55 1018.96 1019.32 1019.62 1019.82 1019.94 1019.96 1019.90 1019.79 1019.63 1019.46 1019.26 1019.03 1018.76 1018.44 1018.05 1017.59 1017.07 1016.51 1015.95 1015.44 1015.01 1014.72 1014.59 1014.64 1014.86 1015.23 1015.73 1016.31
1018.29 1018.08 1017.90 1017.72 1017.55 1017.38 1017.23 1017.10 1017.03 1017.02 1017.11 1017.31 1017.61 1018.01 1018.46 1018.94 1019.40 1019.80 1020.10 1020.29 1020.38 1020.37 1020.28 1020.13 1019.94 1019.73 1019.49 1019.21 1018.89 1018.50 1018.06 1017.55 1016.99 1016.42 1015.88 1015.42 1015.07 1014.87 1014.84 1014.99 1015.29 1015.74 1016.29
1018.56 1018.38 1018.21 1018.03 1017.85 1017.66 1017.46 1017.27 1017.12 1017.04 1017.06 1017.20 1017.46 1017.83 1018.29 1018.81 1019.32 1019.79 1020.18 1020.46 1020.62 1020.68 1020.64 1020.53 1020.37 1020.18 1019.95 1019.70 1019.40 1019.04 1018.63 1018.15 1017.63 1017.08 1016.54 1016.06 1015.68 1015.42 1015.32 1015.39 1015.62 1015.99 1016.48
1018.82 1018.68 1018.54 1018.39 1018.21 1018.01 1017.78 1017.55 1017.34 1017.19 1017.13 1017.19 1017.38 1017.70 1018.12 1018.62 1019.15 1019.65 1020.10 1020.45 1020.69 1020.82 1020.85 1020.81 1020.70 1020.55 1020.37 1020.15 1019.90 1019.59 1019.23 1018.81 1018.34 1017.84 1017.34 1016.87 1016.47 1016.19 1016.03 1016.03 1016.18 1016.47 1016.88
1019.05 1018.96 1018.86 1018.74 1018.59 1018.40 1018.17 1017.92 1017.68 1017.48 1017.35 1017.33 1017.44 1017.67 1018.02 1018.47 1018.96 1019.46 1019.92 1020.31 1020.61 1020.81 1020.92 1020.94 1020.91 1020.82 1020.70 1020.54 1020.34 1020.10 1019.81 1019.46 1019.06 1018.63 1018.18 1017.76 1017.38 1017.09 1016.91 1016.85 1016.94 1017.15 1017.47
1019.20 1019.16 1019.11 1019.03 1018.93 1018.77 1018.58 1018.35 1018.11 1017.88 1017.71 1017.63 1017.65 1017.79 1018.05 1018.41 1018.83 1019.28 1019.72 1020.12 1020.45 1020.70 1020.87 1020.97 1021.01 1020.99 1020.94 1020.84 1020.71 1020.54 1020.32 1020.05 1019.74 1019.38 1019.02 1018.65 1018.32 1018.05 1017.87 1017.79 1017.82 1017.96 1018.20
1019.24 1019.25 1019.24 1019.23 1019.18 1019.08 1018.95 1018.77 1018.56 1018.35 1018.17 1018.05 1018.01 1018.07 1018.23 1018.48 1018.81 1019.19 1019.58 1019.95 1020.29 1020.57 1020.79 1020.95 1021.05 1021.10 1021.11 1021.08 1021.01 1020.91 1020.76 1020.57 1020.33 1020.07 1019.78 1019.50 1019.24 1019.01 1018.85 1018.76 1018.76 1018.85 1019.03
1019.17 1019.22 1019.26 1019.29 1019.31 1019.29 1019.23 1019.13 1018.99 1018.83 1018.67 1018.54 1018.47 1018.46 1018.54 1018.70 1018.94 1019.22 1019.55 1019.88 1020.20 1020.49 1020.74 1020.94 1021.09 1021.20 1021.27 1021.29 1021.28 1021.22 1021.13 1021.01 1020.85 1020.66 1020.47 1020.26 1020.07 1019.91 1019.79 1019.72 1019.71 1019.76 1019.88
1019.02 1019.09 1019.17 1019.25 1019.33 1019.39 1019.41 1019.40 1019.35 1019.26 1019.16 1019.06 1018.98 1018.94 1018.96 1019.04 1019.19 1019.40 1019.65 1019.93 1020.22 1020.50 1020.76 1020.99 1021.18 1021.33 1021.44 1021.50 1021.53 1021.52 1021.47 1021.40 1021.30 1021.18 1021.06 1020.93 1020.81 1020.71 1020.64 1020.59 1020.59 1020.63 1020.71
1018.84 1018.91 1019.02 1019.14 1019.27 1019.40 1019.51 1019.58 1019.62 1019.62 1019.59 1019.54 1019.48 1019.44 1019.43 1019.47 1019.55 1019.69 1019.88 1020.11 1020.36 1020.62 1020.88 1021.12 1021.33 1021.51 1021.64 1021.74 1021.79 1021.80 1021.79 1021.75 1021.69 1021.62 1021.55 1021.48 1021.42 1021.37 1021.35 1021.34 1021.35 1021.39 1021.45
1018.66 1018.75 1018.87 1019.02 1019.19 1019.37 1019.54 1019.70 1019.82 1019.90 1019.94 1019.94 1019.93 1019.91 1019.89 1019.90 1019.95 1020.04 1020.18 1020.37 1020.58 1020.82 1021.06 1021.30 1021.52 1021.71 1021.86 1021.97 1022.04 1022.07 1022.07 1022.05 1022.02 1021.97 1021.94 1021.90 1021.88 1021.88 1021.89 1021.91 1021.95 1021.99 1022.05
1018.53 1018.63 1018.76 1018.92 1019.12 1019.34 1019.55 1019.76 1019.94 1020.08 1020.18 1020.24 1020.27 1020.28 1020.28 1020.29 1020.32 1020.39 1020.49 1020.64 1020.82 1021.03 1021.25 1021.48 1021.69 1021.88 1022.04 1022.16 1022.24 1022.28 1022.29 1022.28 1022.25 1022.22 1022.20 1022.18 1022.18 1022.20 1022.23 1022.28 1022.33 1022.39 1022.45
1018.46 1018.57 1018.71 1018.89 1019.09 1019.32 1019.56 1019.79 1020.00 1020.17 1020.32 1020.42 1020.49 1020.53 1020.55 1020.57 1020.61 1020.66 1020.74 1020.86 1021.01 1021.19 1021.39 1021.59 1021.79 1021.98 1022.13 1022.26 1022.34 1022.39 1022.41 1022.40 1022.37 1022.34 1022.31 1022.29 1022.29 1022.31 1022.35 1022.41 1022.48 1022.56 1022.64
1018.43 1018.55 1018.71 1018.89 1019.10 1019.32 1019.55 1019.78 1019.99 1020.17 1020.33 1020.45 1020.55 1020.62 1020.67 1020.72 1020.76 1020.82 1020.89 1020.98 1021.11 1021.25 1021.42 1021.59 1021.77 1021.94 1022.09 1022.22 1022.31 1022.36 1022.39 1022.38 1022.35 1022.31 1022.26 1022.23 1022.21 1022.22 1022.25 1022.31 1022.39 1022.49 1022.59
1018.42 1018.56 1018.73 1018.91 1019.11 1019.32 1019.52 1019.72 1019.91 1020.07 1020.23 1020.36 1020.47 1020.56 1020.64 1020.71 1020.77 1020.83 1020.90 1020.98 1021.08 1021.19 1021.32 1021.46 1021.61 1021.76 1021.90 1022.02 1022.12 1022.18 1022.21 1022.21 1022.17 1022.12 1022.06 1022.00 1021.95 1021.94 1021.95 1022.00 1022.08 1022.19 1022.32
1018.39 1018.55 1018.73 1018.92 1019.10 1019.28 1019.45 1019.60 1019.75 1019.88 1020.02 1020.14 1020.25 1020.37 1020.47 1020.57 1020.65 1020.73 1020.80 1020.87 1020.94 1021.01 1021.10 1021.21 1021.32 1021.45 1021.57 1021.69 1021.79 1021.87 1021.90 1021.90 1021.87 1021.80 1021.72 1021.63 1021.55 1021.50 1021.49 1021.52 1021.60 1021.72 1021.86
1018.34 1018.52 1018.71 1018.89 1019.06 1019.21 1019.33 1019.44 1019.54 1019.63 1019.73 1019.83 1019.95 1020.08 1020.21 1020.33 1020.44 1020.53 1020.61 1020.67 1020.72 1020.76 1020.81 1020.87 1020.95 1021.04 1021.15 1021.26 1021.36 1021.44 1021.49 1021.50 1021.46 1021.38 1021.28 1021.16 1021.06 1020.97 1020.93 1020.93 1021.00 1021.11 1021.27
1018.30 1018.50 1018.70 1018.87 1019.01 1019.12 1019.20 1019.26 1019.30 1019.35 1019.41 1019.50 1019.61 1019.75 1019.90 1020.04 1020.18 1020.29 1020.37 1020.42 1020.45 1020.46 1020.47 1020.49 1020.53 1020.59 1020.68 1020.78 1020.87 1020.96 1021.01 1021.02 1020.99 1020.91 1020.79 1020.65 1020.51 1020.39 1020.31 1020.29 1020.33 1020.43 1020.58
1018.34 1018.55 1018.74 1018.90 1019.01 1019.08 1019.11 1019.12 1019.11 1019.11 1019.14 1019.20 1019.30 1019.43 1019.59 1019.76 1019.91 1020.03 1020.12 1020.16 1020.17 1020.15 1020.13 1020.10 1020.10 1020.13 1020.18 1020.26 1020.35 1020.44 1020.50 1020.51 1020.48 1020.39 1020.26 1020.11 1019.94 1019.79 1019.68 1019.62 1019.63 1019.70 1019.82
Thickness
5740 5738 5737 5733 5734 5733 5733 5732 5733 5732 5731 5731 5731 5731 5731 5732 5732 5732 5730 5728 5729 5731 5732 5735 5737 5739 5741 5743 5745 5745 5745 5746 5748 5749 5750 5751 5752 5753 5755 5756 5758 5759 5760
5737 5735 5735 5732 5732 5731 5731 5730 5730 5728 5728 5728 5727 5727 5727 5729 5729 5729 5729 5727 5727 5728 5729 5731 5733 5735 5737 5738 5740 5741 5742 5743 5744 5745 5747 5748 5749 5750 5751 5753 5754 5756 5757
5734 5734 5733 5732 5730 5729 5729 5728 5727 5726 5725 5724 5724 5723 5724 5724 5725 5725 5726 5726 5726 5725 5726 5727 5729 5731 5733 5734 5736 5737 5738 5740 5741 5742 5743 5745 5746 5747 5748 5750 5751 5753 5754
5732 5730 5730 5729 5727 5726 5726 5725 5724 5723 5722 5721 5721 5721 5721 5720 5722 5722 5723 5724 5724 5725 5724 5724 5726 5727 5729 5731 5732 5734 5735 5736 5737 5739 5740 5741 5743 5744 5745 5747 5748 5750 5751
5729 5728 5726 5726 5725 5724 5724 5722 5721 5721 5718 5717 5717 5717 5718 5718 5718 5719 5721 5721 5721 5722 5723 5722 5723 5724 5725 5726 5728 5730 5731 5733 5734 5735 5737 5738 5740 5741 5742 5744 5745 5747 5748
5727 5726 5724 5724 5723 5722 5720 5719 5717 5716 5715 5715 5716 5714 5714 5715 5716 5716 5717 5717 5718 5719 5720 5720 5721 5721 5721 5722 5723 5725 5727 5728 5730 5732 5733 5735 5737 5738 5740 5741 5742 5744 5745
5724 5723 5723 5722 5720 5719 5718 5718 5716 5713 5713 5714 5712 5709 5710 5713 5713 5711 5712 5714 5714 5714 5716 5716 5717 5718 5719 5718 5719 5721 5723 5724 5727 5728 5730 5731 5733 5735 5736 5738 5739 5740 5742
5721 5721 5720 5719 5717 5715 5715 5714 5712 5712 5710 5711 5710 5707 5703 5704 5706 5708 5709 5709 5710 5711 5712 5713 5713 5713 5715 5715 5715 5716 5717 5719 5722 5724 5726 5728 5729 5731 5733 5734 5735 5737 5739
5717 5716 5717 5717 5715 5715 5713 5712 5711 5709 5708 5708 5710 5707 5703 5700 5702 5704 5705 5706 5706 5706 5707 5708 5708 5709 5710 5711 5711 5711 5712 5714 5717 5719 5722 5724 5725 5727 5729 5731 5732 5734 5735
5714 5714 5714 5713 5714 5713 5711 5711 5710 5709 5707 5706 5706 5706 5708 5706 5702 5698 5700 5702 5702 5702 5703 5703 5703 5704 5705 5705 5705 5705 5707 5709 5711 5714 5717 5719 5721 5723 5725 5727 5729 5730 5731
5711 5711 5711 5711 5711 5710 5709 5708 5707 5707 5707 5706 5705 5705 5704 5703 5706 5701 5696 5696 5698 5699 5698 5698 5698 5699 5699 5700 5700 5700 5702 5704 5706 5709 5711 5713 5716 5720 5723 5725 5726 5726 5727
5709 5709 5708 5708 5708 5708 5707 5705 5704 5704 5704 5703 5704 5704 5702 5701 5700 5699 5696 5694 5693 5694 5695 5693 5694 5694 5694 5695 5694 5694 5696 5699 5701 5703 5706 5708 5713 5717 5720 5722 5723 5723 5724
5707 5706 5706 5706 5705 5704 5703 5703 5702 5702 5702 5700 5701 5701 5700 5699 5699 5698 5696 5694 5692 5692 5691 5691 5690 5690 5690 5690 5690 5690 5691 5693 5696 5698 5700 5702 5707 5710 5713 5716 5717 5718 5718
5705 5704 5703 5703 5701 5700 5700 5699 5700 5700 5700 5699 5698 5697 5697 5696 5696 5695 5694 5692 5690 5690 5689 5687 5687 5686 5685 5686 5685 5686 5689 5689 5690 5693 5695 5697 5700 5702 5705 5707 5709 5710 5710
5703 5702 5701 5700 5698 5697 5697 5697 5696 5696 5695 5695 5695 5694 5694 5693 5693 5693 5693 5693 5690 5687 5685 5683 5682 5682 5682 5682 5681 5684 5684 5683 5685 5687 5689 5691 5693 5695 5696 5697 5699 5700 5701
5700 5699 5699 5698 5696 5695 5694 5693 5693 5691 5692 5690 5689 5690 5690 5691 5690 5689 5690 5690 5690 5688 5683 5681 5680 5679 5678 5679 5678 5679 5680 5680 5680 5682 5683 5684 5686 5688 5689 5690 5690 5692 5693
5698 5697 5696 5695 5694 5692 5691 5690 5690 5689 5689 5688 5688 5687 5686 5686 5686 5686 5686 5686 5685 5685 5680 5678 5678 5677 5676 5675 5675 5675 5676 5677 5677 5676 5677 5678 5679 5680 5681 5682 5683 5684 5685
5696 5695 5693 5692 5691 5689 5688 5688 5686 5685 5685 5684 5684 5684 5684 5682 5682 5682 5681 5681 5680 5680 5678 5673 5674 5673 5672 5671 5670 5671 5672 5673 5672 5671 5671 5672 5672 5673 5674 5674 5675 5676 5676
5693 5692 5691 5690 5688 5687 5685 5684 5683 5683 5682 5682 5682 5681 5681 5681 5679 5678 5677 5677 5676 5675 5673 5671 5669 5667 5668 5667 5666 5667 5667 5666 5667 5667 5667 5666 5666 5666 5667 5667 5667 5668 5668
5690 5689 5688 5686 5685 5683 5683 5682 5680 5680 5679 5678 5678 5677 5677 5677 5676 5675 5673 5672 5671 5669 5668 5667 5665 5664 5662 5661 5661 5661 5661 5662 5661 5661 5661 5661 5661 5661 5661 5660 5660 5660 5660
5687 5686 5684 5682 5681 5679 5678 5678 5677 5676 5676 5674 5674 5673 5671 5668 5666 5667 5667 5667 5665 5664 5663 5661 5660 5659 5657 5655 5655 5655 5655 5656 5656 5654 5655 5656 5656 5657 5656 5654 5652 5652 5652
5683 5681 5680 5678 5676 5675 5671 5669 5671 5672 5672 5671 5670 5669 5667 5664 5661 5659 5657 5657 5657 5658 5658 5656 5655 5653 5652 5650 5648 5648 5649 5649 5648 5648 5647 5649 5649 5650 5648 5646 5644 5643 5644
5678 5676 5675 5673 5672 5669 5665 5664 5664 5666 5667 5667 5666 5665 5662 5659 5657 5657 5653 5651 5650 5648 5648 5650 5649 5648 5646 5645 5643 5642 5642 5641 5640 5640 5639 5641 5642 5642 5640 5638 5636 5635 5635
5674 5672 5670 5669 5666 5663 5660 5659 5658 5661 5661 5660 5660 5659 5658 5655 5652 5652 5651 5649 5648 5645 5643 5643 5642 5640 5638 5636 5635 5634 5634 5634 5634 5632 5631 5633 5635 5635 5634 5632 5628 5627 5626
5670 5668 5666 5664 5662 5659 5655 5654 5653 5656 5656 5655 5653 5652 5651 5649 5643 5642 5644 5643 5642 5639 5635 5632 5630 5629 5627 5626 5625 5626 5626 5627 5627 5627 5624 5623 5625 5626 5626 5625 5622 5619 5618
5666 5663 5661 5660 5658 5656 5651 5648 5648 5651 5651 5649 5647 5645 5641 5640 5636 5635 5638 5637 5635 5633 5631 5629 5626 5623 5622 5620 5617 5617 5618 5618 5618 5618 5615 5613 5614 5614 5617 5618 5614 5612 5611